{"data":{"norad_id":59301,"intl_designator":"2024-056F","name":"STARLINK-31502","alt_names":[],"object_type":"PAYLOAD","status":"ACTIVE","operator":null,"country":"US","launch_date":"2024-03-24","launch_site_code":"AFETR","launch_vehicle":null,"mission":null,"orbit_class":"UNKNOWN","rcs_meters":null,"size_class":null,"mass_kg":null,"dimensions":null,"purposes":["comms"],"wikipedia_slug":null,"has_3d_model":false,"image_url":null,"decayed_at":null,"tle_current":{"epoch":"2026-09-21T02:25:52.960224Z","epoch_age_seconds":110331,"freshness":"FRESH","line1":"1 59301U 24056F   26264.10130741  .00000608  00000+0  31631-4 0  9993","line2":"2 59301  43.0005 199.8861 0001373 270.5870  89.4824 15.27575161141121","mean_motion":15.27575161,"eccentricity":0.0001373,"inclination_deg":43.0005,"raan_deg":199.8861,"arg_perigee_deg":270.587,"mean_anomaly_deg":89.4824,"bstar":3.1631e-5,"rev_number":14112,"period_min":94.267047328613,"perigee_km":482.1215429443,"apogee_km":484.00562862515,"semimajor_km":6861.2005857847,"source":"CELESTRAK","updated_at":"2026-09-22T09:00:48.875836Z"}}}